MSR19 HELX-HESN

Flight info

Callsign MSR19
Flight time 0h 29m
Altitude 13000
Route LXR W605 ASN
Aircraft B738/M-SDE2E3FGHIRWXY/LB1

Departure

Time 2026-05-05 16:21
Airport Luxor International Airport (HELX)

Arrival

Time 2026-05-05 16:50
Airport Aswan International Airport (HESN)
Time Latitude Longitude Altitude Speed Heading
2026-05-05 15:50 25.67402 32.70187 290 ft 0 kts 295°
2026-05-05 16:13 25.67398 32.70198 288 ft 4 kts 296°
2026-05-05 16:14 25.67371 32.70249 293 ft 4 kts 308°
2026-05-05 16:14 25.67331 32.70279 291 ft 3 kts 22°
2026-05-05 16:15 25.67324 32.70276 294 ft 0 kts 26°
2026-05-05 16:16 25.67387 32.70309 288 ft 20 kts 27°
2026-05-05 16:17 25.67521 32.70459 291 ft 11 kts 119°
2026-05-05 16:17 25.67478 32.70556 292 ft 18 kts 116°
2026-05-05 16:18 25.67167 32.70497 288 ft 29 kts 204°
2026-05-05 16:18 25.66979 32.70411 290 ft 30 kts 199°
2026-05-05 16:18 25.66589 32.70230 295 ft 29 kts 202°
2026-05-05 16:19 25.66394 32.70140 295 ft 31 kts 203°
2026-05-05 16:19 25.66257 32.70079 299 ft 33 kts 202°
2026-05-05 16:19 25.65934 32.69942 301 ft 9 kts 160°
2026-05-05 16:20 25.65908 32.70098 299 ft 1 kts 25°
2026-05-05 16:20 25.66116 32.70183 302 ft 77 kts 19°
2026-05-05 16:21 25.67977 32.71040 1054 ft 175 kts 22°
2026-05-05 16:22 25.70655 32.73194 4788 ft 151 kts 33°
2026-05-05 16:22 25.72227 32.74564 6990 ft 140 kts 32°
2026-05-05 16:23 25.73058 32.76770 8286 ft 195 kts 112°
2026-05-05 16:23 25.72132 32.77960 8776 ft 222 kts 156°
2026-05-05 16:23 25.68761 32.78016 9294 ft 277 kts 191°
2026-05-05 16:24 25.66766 32.77767 9977 ft 295 kts 189°
2026-05-05 16:24 25.64661 32.77581 10639 ft 319 kts 188°
2026-05-05 16:24 25.59879 32.77403 11871 ft 356 kts 185°
2026-05-05 16:25 25.57393 32.77402 12620 ft 358 kts 184°
2026-05-05 16:25 25.52344 32.77484 12972 ft 381 kts 183°
2026-05-05 16:25 25.49640 32.77543 12978 ft 393 kts 182°
2026-05-05 16:26 25.44245 32.77690 12955 ft 388 kts 182°
2026-05-05 16:26 25.38817 32.77839 12961 ft 387 kts 183°
2026-05-05 16:27 25.36158 32.77909 12967 ft 388 kts 183°
2026-05-05 16:27 25.33459 32.77979 12962 ft 389 kts 183°
2026-05-05 16:27 25.30753 32.78049 12968 ft 389 kts 183°
2026-05-05 16:27 25.28046 32.78122 12970 ft 389 kts 183°
2026-05-05 16:28 25.25338 32.78193 12968 ft 390 kts 182°
2026-05-05 16:28 25.22626 32.78259 12949 ft 390 kts 183°
2026-05-05 16:28 25.19917 32.78326 12956 ft 390 kts 182°
2026-05-05 16:28 25.17205 32.78400 12958 ft 389 kts 182°
2026-05-05 16:29 25.14499 32.78472 12959 ft 389 kts 182°
2026-05-05 16:29 25.11795 32.78543 12960 ft 389 kts 182°
2026-05-05 16:29 25.09090 32.78617 12957 ft 389 kts 182°
2026-05-05 16:29 25.06386 32.78693 12958 ft 389 kts 182°
2026-05-05 16:30 25.03682 32.78768 12957 ft 388 kts 182°
2026-05-05 16:30 25.00982 32.78844 12960 ft 388 kts 182°
2026-05-05 16:30 24.98281 32.78919 12961 ft 388 kts 182°
2026-05-05 16:30 24.95579 32.78994 12957 ft 388 kts 183°
2026-05-05 16:31 24.92879 32.79069 12949 ft 388 kts 182°
2026-05-05 16:31 24.90181 32.79144 12950 ft 388 kts 182°
2026-05-05 16:31 24.87483 32.79218 12958 ft 388 kts 182°
2026-05-05 16:31 24.84788 32.79293 12958 ft 388 kts 182°
2026-05-05 16:32 24.82087 32.79368 12953 ft 388 kts 182°
2026-05-05 16:32 24.79390 32.79442 12952 ft 388 kts 182°
2026-05-05 16:32 24.76689 32.79517 12952 ft 388 kts 182°
2026-05-05 16:32 24.73994 32.79591 12954 ft 388 kts 182°
2026-05-05 16:33 24.71294 32.79666 12952 ft 388 kts 182°
2026-05-05 16:33 24.68599 32.79740 12953 ft 388 kts 182°
2026-05-05 16:33 24.65911 32.79814 12944 ft 388 kts 182°
2026-05-05 16:33 24.63201 32.79889 12947 ft 388 kts 182°
2026-05-05 16:34 24.60505 32.79963 12958 ft 388 kts 182°
2026-05-05 16:34 24.57805 32.80038 12956 ft 389 kts 182°
2026-05-05 16:34 24.55100 32.80112 12946 ft 389 kts 182°
2026-05-05 16:34 24.52400 32.80186 12946 ft 388 kts 182°
2026-05-05 16:35 24.49696 32.80261 12954 ft 389 kts 182°
2026-05-05 16:35 24.46995 32.80336 12951 ft 389 kts 182°
2026-05-05 16:35 24.44285 32.80411 12950 ft 389 kts 182°
2026-05-05 16:35 24.41584 32.80486 12949 ft 388 kts 182°
2026-05-05 16:36 24.38884 32.80560 12943 ft 388 kts 182°
2026-05-05 16:36 24.36183 32.80635 12951 ft 388 kts 182°
2026-05-05 16:36 24.33494 32.80562 12940 ft 384 kts 193°
2026-05-05 16:36 24.30992 32.79747 12962 ft 380 kts 202°
2026-05-05 16:37 24.28486 32.78820 12945 ft 381 kts 201°
2026-05-05 16:37 24.25973 32.77910 12950 ft 381 kts 201°
2026-05-05 16:37 24.23455 32.77014 12945 ft 381 kts 201°
2026-05-05 16:37 24.20930 32.76123 12940 ft 381 kts 201°
2026-05-05 16:38 24.18423 32.75246 12842 ft 374 kts 201°
2026-05-05 16:38 24.15971 32.74392 12272 ft 364 kts 201°
2026-05-05 16:38 24.13603 32.73569 11659 ft 349 kts 200°
2026-05-05 16:38 24.11333 32.72779 11037 ft 337 kts 200°
2026-05-05 16:39 24.09138 32.72015 10681 ft 323 kts 200°
2026-05-05 16:39 24.07043 32.71286 10504 ft 309 kts 200°
2026-05-05 16:39 24.05021 32.70581 10377 ft 305 kts 200°
2026-05-05 16:39 24.02983 32.69869 10245 ft 305 kts 200°
2026-05-05 16:40 24.01018 32.69186 10111 ft 287 kts 200°
2026-05-05 16:40 23.99169 32.68544 9985 ft 270 kts 200°
2026-05-05 16:40 23.97412 32.67933 9697 ft 262 kts 200°
2026-05-05 16:40 23.95695 32.67335 9378 ft 256 kts 201°
2026-05-05 16:41 23.93999 32.66744 9055 ft 258 kts 201°
2026-05-05 16:41 23.92276 32.66142 8725 ft 263 kts 201°
2026-05-05 16:41 23.90501 32.65525 8357 ft 272 kts 199°
2026-05-05 16:41 23.88614 32.65371 8020 ft 273 kts 175°
2026-05-05 16:42 23.86754 32.65703 7692 ft 268 kts 174°
2026-05-05 16:42 23.84931 32.65995 7389 ft 261 kts 175°
2026-05-05 16:42 23.83138 32.66248 7097 ft 262 kts 176°
2026-05-05 16:42 23.81311 32.66489 6802 ft 267 kts 176°
2026-05-05 16:43 23.79434 32.66740 6468 ft 276 kts 172°
2026-05-05 16:43 23.77657 32.67568 6109 ft 283 kts 142°
2026-05-05 16:43 23.76496 32.69249 5761 ft 277 kts 110°
2026-05-05 16:43 23.76217 32.71274 5422 ft 267 kts 83°
2026-05-05 16:44 23.76474 32.73245 5106 ft 259 kts 77°
2026-05-05 16:44 23.76786 32.75164 4775 ft 254 kts 77°
2026-05-05 16:44 23.77082 32.77037 4456 ft 248 kts 76°
2026-05-05 16:44 23.77363 32.78876 4147 ft 243 kts 76°
2026-05-05 16:45 23.77634 32.80676 3846 ft 238 kts 77°
2026-05-05 16:45 23.77919 32.82428 3557 ft 231 kts 70°
2026-05-05 16:45 23.78727 32.83852 3290 ft 217 kts 36°
2026-05-05 16:45 23.80035 32.84505 3077 ft 202 kts
2026-05-05 16:46 23.81389 32.84514 2947 ft 188 kts 356°
2026-05-05 16:46 23.82646 32.84375 2827 ft 175 kts 352°
2026-05-05 16:46 23.83809 32.84195 2663 ft 161 kts 351°
2026-05-05 16:46 23.84868 32.84016 2512 ft 147 kts 351°
2026-05-05 16:47 23.85837 32.83849 2413 ft 133 kts 351°
2026-05-05 16:47 23.86687 32.83702 2307 ft 119 kts 350°
2026-05-05 16:47 23.87497 32.83560 2181 ft 116 kts 351°
2026-05-05 16:47 23.88283 32.83422 2049 ft 116 kts 352°
2026-05-05 16:48 23.89072 32.83285 1890 ft 114 kts 352°
2026-05-05 16:48 23.89865 32.83147 1745 ft 117 kts 351°
2026-05-05 16:48 23.90671 32.83025 1550 ft 118 kts 354°
2026-05-05 16:48 23.91505 32.82882 1383 ft 127 kts 347°
2026-05-05 16:49 23.92360 32.82673 1244 ft 121 kts 349°
2026-05-05 16:49 23.93178 32.82553 1026 ft 119 kts 351°
2026-05-05 16:49 23.94001 32.82425 891 ft 123 kts 349°
2026-05-05 16:49 23.94812 32.82272 738 ft 114 kts 350°
2026-05-05 16:50 23.95556 32.82145 662 ft 98 kts 350°
2026-05-05 16:50 23.96108 32.82050 660 ft 63 kts 351°
2026-05-05 16:50 23.96486 32.81983 652 ft 51 kts 351°
2026-05-05 16:50 23.96801 32.81926 644 ft 19 kts 351°
2026-05-05 16:51 23.96891 32.81984 643 ft 17 kts 76°
2026-05-05 16:51 23.96907 32.82068 643 ft 10 kts 78°
2026-05-05 16:51 23.96920 32.82148 644 ft 11 kts 83°
2026-05-05 16:51 23.96926 32.82233 644 ft 12 kts 93°
2026-05-05 16:52 23.96904 32.82312 644 ft 9 kts 122°
2026-05-05 16:52 23.96872 32.82323 645 ft 0 kts 177°